Wind_Speed
5 5 4 5 4 5 5 5 5 4 4 4 3 3 3 3 4 4 4 4 3 2 2 3 3 3 3 2 2 1 1 1 2 3 3 3 3 4 4 4 4 5 5
4 5 4 4 4 4 4 4 4 4 4 4 4 3 3 3 4 4 4 3 2 2 1 2 2 2 2 2 2 1 1 1 2 3 3 3 3 3 3 3 3 4 4
5 5 4 4 4 4 4 4 4 4 4 4 4 3 3 3 4 4 4 3 2 2 3 3 2 2 2 1 1 1 1 1 2 2 3 3 3 2 2 2 3 3 4
5 5 5 5 4 4 4 4 4 5 5 4 3 3 3 3 3 4 4 3 2 2 3 3 3 2 2 2 1 0 1 1 1 1 1 2 2 2 2 2 3 3 4
6 6 5 5 5 4 4 4 4 5 4 4 4 4 4 4 4 4 4 4 3 3 3 4 4 3 3 2 2 2 1 2 1 1 1 1 2 3 3 3 3 3 3
8 6 6 6 6 5 6 5 5 4 4 4 4 4 4 5 5 4 4 4 4 4 4 4 4 3 3 3 3 3 2 1 1 1 1 1 1 2 3 3 3 3 4
8 7 7 7 7 6 6 6 5 5 5 4 4 5 5 5 4 4 5 5 5 6 5 5 5 5 5 5 5 4 4 3 2 0 1 1 1 1 2 2 2 3 3
8 8 8 8 7 6 6 6 6 5 5 5 5 5 5 5 5 5 6 6 7 7 7 6 6 6 6 6 6 6 5 4 3 2 1 0 1 1 1 2 2 3 3
8 8 9 8 7 7 6 6 6 6 5 5 5 5 5 5 6 6 7 7 7 7 7 7 7 6 6 7 7 6 5 4 3 2 2 2 1 2 2 2 3 3 3
8 8 8 8 8 8 7 6 6 6 6 5 5 6 5 5 6 6 7 8 8 8 7 7 7 7 6 7 7 6 5 5 3 3 2 2 2 2 2 3 3 4 4
8 8 8 8 8 8 7 7 6 5 5 5 5 5 5 6 6 6 7 8 8 8 7 7 7 7 7 7 7 6 6 5 4 4 4 3 3 3 3 4 4 4 4
9 9 8 8 8 8 7 7 6 6 5 5 5 5 6 6 6 7 7 7 7 8 8 7 7 7 7 8 8 6 6 6 6 5 5 4 3 3 4 4 4 3 4
9 9 8 8 8 8 8 7 7 6 5 5 5 6 6 6 6 6 6 7 7 7 7 7 7 7 7 8 8 7 7 7 7 6 6 5 4 4 4 4 3 2 2
10 9 9 9 8 8 8 8 7 6 6 6 6 6 6 6 6 6 6 6 6 7 7 7 7 7 7 7 7 8 8 9 8 7 7 6 5 4 4 4 2 1 1
11 10 10 9 9 9 9 8 8 6 7 7 6 6 6 6 5 6 5 6 6 7 7 7 7 7 6 7 7 7 7 8 8 8 7 6 6 5 5 4 3 2 1
11 10 10 9 9 9 9 8 8 7 7 7 6 6 6 6 6 5 5 5 5 6 6 6 6 7 7 7 7 7 7 7 8 8 7 6 6 7 6 5 4 3 2
11 11 10 9 9 9 9 8 8 8 7 6 6 5 5 5 6 5 5 5 5 5 5 5 5 6 6 6 7 7 7 7 7 7 7 7 6 6 6 6 5 4 3
11 11 10 9 8 8 8 7 7 7 6 5 5 5 4 5 5 5 6 5 5 5 5 5 5 5 6 6 6 6 6 6 7 7 7 7 7 6 6 6 6 5 4
11 10 10 9 8 7 7 7 6 5 5 5 4 4 4 4 4 5 5 5 4 5 5 5 5 6 5 6 6 6 6 6 6 6 7 7 7 6 5 5 5 5 4
11 10 9 9 8 7 7 6 5 5 5 4 4 4 4 4 4 4 4 5 4 4 4 4 5 5 6 6 6 6 6 6 6 6 6 7 6 6 5 4 4 4 4
10 9 9 8 7 7 6 6 5 4 4 3 3 3 3 4 3 3 3 4 4 4 4 4 5 5 5 6 7 6 6 6 6 6 6 6 6 5 5 4 4 4 4
10 9 8 7 6 6 6 5 4 3 3 3 2 2 2 3 3 3 3 4 5 4 4 4 5 5 6 6 6 6 6 6 6 6 6 6 6 5 4 4 5 4 3
9 9 8 7 7 7 6 5 4 3 2 2 2 2 1 2 3 3 4 4 4 5 5 5 5 6 5 6 6 6 6 6 7 7 7 6 6 5 4 4 4 4 4
9 9 8 7 7 7 6 5 3 3 2 1 1 1 1 2 3 3 3 3 4 5 6 6 6 6 6 6 7 6 7 7 7 8 7 6 6 6 5 5 5 6 6
9 9 8 7 7 6 6 4 3 3 2 1 1 1 2 3 3 3 4 4 5 5 6 6 6 6 6 7 7 7 8 8 8 8 8 7 7 7 7 7 7 7 7
9 9 8 7 7 7 6 5 4 3 3 3 3 3 3 3 3 4 5 5 5 6 6 7 7 7 7 7 8 8 9 9 9 9 8 8 9 8 9 9 9 9 9
Wind_Direction
69 74 86 91 100 106 105 107 105 96 102 118 123 115 111 112 120 120 103 104 102 90 109 135 140 152 146 141 131 139 170 213 225 218 227 237 238 245 253 265 266 248 250
73 77 81 86 102 107 106 107 103 97 106 110 120 119 113 109 110 103 98 100 102 92 85 125 142 145 137 138 151 168 195 215 212 212 221 239 245 252 258 263 268 252 255
74 83 86 92 102 109 115 117 112 105 109 115 111 104 108 104 110 95 92 94 92 79 73 81 92 108 115 116 142 191 199 216 213 215 219 215 226 246 244 252 256 255 244
83 86 82 86 96 104 108 114 110 108 108 106 100 101 88 94 110 102 86 83 82 82 82 68 65 88 81 58 46 327 247 249 250 238 222 205 226 237 244 251 256 254 241
87 84 81 86 89 98 105 104 109 110 116 108 95 88 79 87 100 93 72 72 82 88 81 66 65 70 56 50 33 9 344 321 299 223 219 224 237 248 251 254 251 250 245
79 79 86 87 87 94 100 96 97 102 108 104 93 78 78 85 88 77 58 67 82 83 81 71 64 56 47 47 37 27 22 10 23 190 199 222 245 253 259 263 254 246 246
72 76 86 83 85 88 95 92 89 93 96 92 85 82 84 82 76 67 63 77 78 76 69 66 69 62 58 51 48 50 50 49 46 114 198 236 253 254 255 262 251 242 246
73 78 80 80 84 88 93 90 90 94 94 89 85 77 74 70 68 68 66 75 75 70 65 64 66 67 57 50 50 49 56 58 62 56 52 339 260 255 269 262 253 251 250
76 75 77 78 80 88 92 92 96 101 99 90 84 79 74 73 72 69 71 73 72 72 68 66 68 66 56 51 49 47 46 50 47 36 23 0 318 280 278 275 266 264 263
80 79 81 84 85 88 93 95 96 97 95 91 86 81 78 75 68 68 67 71 70 71 68 69 66 61 54 48 47 45 43 40 27 18 7 355 341 319 296 289 280 276 272
84 83 82 81 84 86 90 92 91 90 88 87 86 83 77 71 67 65 65 70 69 68 70 72 65 55 46 44 45 47 42 39 26 12 359 352 337 327 314 299 287 283 278
85 83 81 81 84 84 83 87 87 86 84 84 83 78 76 73 68 65 64 74 67 63 64 68 62 51 44 43 44 43 37 31 26 19 10 2 349 336 325 312 296 287 283
82 80 80 85 87 84 83 87 90 88 87 81 79 79 74 72 71 63 67 69 65 61 60 64 60 52 49 46 44 43 38 35 30 21 15 11 4 353 350 336 316 297 286
79 78 78 85 86 83 83 85 88 89 91 88 84 79 76 74 68 69 69 68 64 60 60 58 60 54 49 45 45 43 38 34 29 25 25 24 20 18 11 9 357 337 297
73 72 74 78 79 81 82 81 82 82 85 88 89 83 77 69 63 62 66 67 68 63 58 58 53 50 52 46 44 44 37 31 29 29 30 32 29 26 27 27 17 8 338
69 69 69 70 73 75 78 79 79 81 84 87 85 81 74 67 65 65 65 65 65 62 59 53 50 53 52 44 39 38 37 35 34 32 33 37 35 34 35 34 34 24 17
68 67 67 66 68 71 73 74 77 78 81 87 87 85 77 68 61 58 61 66 65 60 51 46 52 49 42 38 37 34 33 39 37 35 34 35 37 40 40 43 43 36 34
63 63 63 64 65 65 66 66 68 76 82 82 84 83 76 68 63 59 57 64 64 55 46 46 48 43 36 33 35 33 28 29 32 33 29 29 32 35 40 45 44 41 42
55 57 57 58 61 61 60 60 66 77 74 74 78 80 72 65 59 51 48 52 58 53 48 43 36 32 27 22 18 13 17 21 17 20 23 23 24 27 35 42 42 38 35
50 50 51 52 55 56 58 57 67 76 72 68 69 72 69 58 49 40 36 37 40 38 33 28 17 7 10 6 3 2 4 7 9 10 14 17 17 17 21 26 33 32 32
47 46 46 46 49 49 53 55 59 66 67 61 56 60 63 51 40 30 22 27 22 19 16 8 2 357 355 355 351 354 359 4 357 355 356 4 8 13 16 22 29 29 29
42 40 38 39 43 41 42 45 50 54 63 60 50 49 55 42 26 21 26 28 20 11 8 359 352 348 345 348 350 348 348 347 341 342 348 352 355 5 11 15 18 17 15
35 35 33 32 34 33 32 36 48 46 57 63 56 47 31 26 20 25 26 18 13 6 359 352 349 349 345 342 342 341 343 345 339 335 336 342 346 349 349 348 352 358 358
28 27 26 24 25 24 22 23 25 15 17 47 49 24 353 356 353 352 4 358 354 350 350 348 346 347 339 333 331 329 326 325 329 328 327 331 333 330 336 336 331 330 330
20 20 18 15 14 13 15 13 359 353 345 336 306 298 302 309 319 328 331 334 338 340 340 338 338 336 331 325 320 318 316 314 313 314 319 318 320 318 321 320 316 315 317
14 10 7 3 2 2 4 0 350 331 319 305 295 292 292 298 308 314 310 309 316 321 325 325 327 327 323 314 310 309 309 307 308 308 306 305 307 311 315 311 308 306 306
Height
5888 5887 5887 5887 5888 5888 5888 5889 5889 5889 5890 5890 5890 5890 5890 5890 5890 5890 5889 5889 5889 5889 5888 5887 5887 5886 5886 5886 5886 5885 5885 5885 5885 5884 5884 5884 5884 5884 5884 5884 5884 5884 5884
5888 5888 5888 5888 5888 5889 5889 5890 5890 5890 5890 5890 5890 5890 5890 5891 5890 5890 5890 5890 5889 5889 5888 5888 5887 5887 5886 5886 5886 5885 5884 5884 5883 5883 5883 5884 5884 5884 5883 5883 5883 5883 5883
5888 5889 5889 5889 5889 5890 5890 5890 5891 5891 5891 5891 5891 5891 5891 5891 5891 5891 5890 5890 5890 5889 5888 5888 5887 5887 5886 5885 5885 5884 5883 5883 5883 5883 5883 5883 5883 5883 5882 5882 5882 5882 5882
5889 5890 5890 5890 5890 5891 5891 5891 5891 5892 5892 5892 5892 5891 5891 5891 5891 5891 5891 5890 5890 5889 5889 5888 5887 5887 5886 5885 5884 5883 5882 5881 5881 5882 5882 5882 5882 5882 5882 5882 5882 5882 5882
5890 5891 5891 5891 5891 5891 5892 5892 5892 5892 5893 5893 5893 5892 5892 5892 5892 5891 5891 5890 5890 5890 5889 5888 5888 5887 5886 5884 5883 5881 5880 5879 5879 5880 5881 5881 5882 5882 5881 5881 5881 5881 5881
5892 5892 5892 5892 5892 5893 5893 5893 5893 5893 5894 5893 5893 5893 5893 5893 5892 5892 5891 5891 5890 5890 5890 5889 5888 5887 5886 5884 5882 5880 5878 5878 5878 5879 5880 5881 5881 5881 5881 5880 5880 5880 5880
5893 5893 5893 5894 5894 5894 5894 5894 5894 5894 5895 5894 5894 5894 5894 5894 5893 5893 5892 5892 5891 5890 5890 5889 5888 5888 5886 5885 5882 5880 5878 5877 5878 5879 5880 5880 5880 5880 5880 5880 5880 5879 5879
5894 5894 5895 5895 5895 5895 5895 5895 5895 5895 5896 5896 5895 5895 5895 5895 5894 5894 5893 5892 5892 5891 5891 5890 5889 5888 5887 5886 5884 5882 5880 5880 5880 5880 5880 5880 5880 5880 5880 5879 5879 5878 5878
5895 5896 5895 5896 5896 5896 5896 5896 5896 5897 5897 5897 5897 5896 5896 5896 5895 5895 5894 5893 5893 5892 5892 5891 5890 5889 5888 5887 5885 5884 5882 5882 5881 5881 5881 5880 5879 5879 5879 5878 5878 5877 5877
5897 5897 5897 5896 5897 5897 5897 5897 5897 5897 5898 5897 5897 5897 5897 5897 5896 5896 5895 5894 5893 5893 5893 5892 5891 5890 5889 5888 5886 5885 5884 5883 5882 5881 5880 5880 5879 5878 5878 5877 5877 5876 5876
5898 5898 5898 5898 5898 5898 5898 5898 5898 5898 5898 5898 5898 5898 5898 5897 5897 5897 5896 5895 5894 5894 5893 5893 5892 5891 5890 5889 5887 5886 5884 5883 5882 5881 5880 5879 5878 5878 5877 5876 5875 5875 5874
5900 5900 5899 5899 5899 5899 5899 5899 5899 5899 5899 5899 5898 5898 5898 5898 5898 5898 5897 5896 5895 5895 5894 5894 5893 5892 5891 5890 5888 5887 5885 5884 5883 5881 5880 5879 5878 5877 5876 5874 5874 5873 5873
5901 5901 5901 5901 5901 5901 5901 5901 5901 5900 5900 5900 5899 5899 5899 5899 5899 5899 5898 5897 5896 5896 5895 5894 5894 5893 5892 5890 5889 5887 5886 5885 5883 5882 5880 5879 5878 5876 5875 5873 5872 5873 5872
5903 5903 5902 5902 5902 5902 5901 5902 5902 5901 5901 5901 5901 5900 5900 5900 5900 5899 5899 5898 5897 5896 5896 5895 5894 5893 5892 5891 5890 5888 5887 5885 5884 5882 5880 5879 5878 5876 5875 5874 5873 5872 5872
5904 5904 5904 5903 5903 5902 5902 5902 5902 5902 5902 5902 5902 5902 5902 5901 5901 5900 5900 5899 5898 5897 5896 5895 5895 5894 5893 5892 5891 5889 5888 5886 5884 5883 5881 5880 5878 5877 5875 5874 5873 5872 5872
5905 5905 5905 5905 5904 5904 5903 5903 5903 5903 5903 5903 5903 5903 5902 5902 5902 5901 5900 5900 5899 5898 5897 5896 5895 5895 5894 5893 5891 5890 5888 5887 5885 5883 5882 5880 5879 5877 5876 5874 5874 5873 5872
5907 5906 5906 5906 5905 5905 5904 5904 5904 5904 5904 5904 5904 5904 5903 5903 5902 5901 5901 5900 5899 5898 5898 5897 5896 5895 5894 5893 5892 5890 5889 5887 5885 5884 5882 5881 5879 5878 5876 5875 5874 5873 5872
5908 5908 5907 5906 5906 5905 5905 5905 5904 5904 5904 5904 5904 5904 5904 5903 5902 5902 5901 5900 5900 5899 5898 5897 5896 5895 5895 5893 5892 5891 5889 5888 5886 5885 5883 5881 5880 5878 5877 5875 5874 5873 5872
5909 5908 5908 5907 5906 5906 5905 5905 5905 5905 5904 5904 5904 5904 5904 5903 5903 5902 5901 5901 5900 5899 5898 5898 5897 5896 5895 5894 5892 5891 5889 5888 5886 5885 5883 5882 5880 5878 5877 5876 5875 5874 5872
5910 5909 5908 5908 5907 5906 5906 5905 5905 5905 5904 5904 5904 5904 5903 5903 5902 5902 5901 5901 5900 5899 5899 5898 5897 5896 5895 5894 5892 5891 5889 5888 5886 5885 5883 5882 5880 5879 5877 5876 5875 5874 5873
5911 5910 5909 5908 5907 5907 5906 5905 5904 5904 5904 5904 5904 5903 5903 5903 5902 5902 5901 5901 5900 5899 5898 5898 5897 5896 5895 5893 5892 5891 5889 5888 5886 5885 5883 5881 5880 5879 5878 5876 5875 5873 5872
5912 5911 5910 5909 5908 5907 5906 5905 5904 5904 5904 5903 5903 5903 5903 5903 5902 5902 5901 5900 5900 5899 5898 5897 5896 5895 5894 5893 5892 5890 5889 5888 5886 5885 5883 5881 5880 5879 5877 5876 5874 5873 5872
5913 5912 5911 5910 5908 5907 5906 5905 5904 5904 5903 5903 5903 5903 5903 5902 5902 5901 5900 5900 5899 5898 5897 5896 5895 5894 5893 5892 5891 5890 5888 5887 5886 5884 5882 5881 5879 5878 5876 5875 5874 5872 5871
5914 5912 5911 5910 5908 5907 5906 5905 5904 5903 5903 5902 5902 5902 5902 5901 5901 5900 5900 5899 5898 5897 5896 5895 5894 5893 5892 5891 5890 5888 5887 5886 5884 5883 5882 5880 5878 5877 5875 5874 5873 5871 5870
5914 5912 5911 5910 5908 5907 5905 5904 5903 5903 5902 5902 5901 5901 5901 5900 5900 5900 5899 5898 5897 5896 5895 5894 5892 5891 5890 5889 5888 5886 5885 5884 5882 5881 5880 5878 5877 5875 5874 5873 5871 5870 5869
5913 5912 5911 5909 5908 5907 5905 5904 5903 5902 5901 5901 5900 5900 5900 5899 5899 5898 5897 5897 5896 5894 5893 5892 5891 5889 5888 5887 5886 5884 5883 5881 5880 5878 5877 5876 5874 5873 5871 5870 5869 5868 5867